Time,TemperatureF,DewpointF,PressureIn,WindDirection,WindDirectionDegrees,WindSpeedMPH,WindSpeedGustMPH,Humidity,HourlyPrecipIn,Conditions,Clouds,dailyrainin,SoftwareType,DateUTC
2013-08-18 00:03:00,65.1,38.0,30.12,SSE,157,0.0,0.0,37,0.00,,,0.00,WUHU21623XXSP,2013-08-18 07:03:00,
2013-08-18 00:12:00,64.2,38.0,30.12,SSE,157,0.0,0.0,38,0.00,,,0.00,WUHU21623XXSP,2013-08-18 07:12:00,
2013-08-18 00:18:00,64.0,37.8,30.12,SSE,157,0.0,0.0,38,0.00,,,0.00,WUHU21623XXSP,2013-08-18 07:18:00,
2013-08-18 00:23:00,63.9,37.8,30.12,SSE,157,0.0,0.0,38,0.00,,,0.00,WUHU21623XXSP,2013-08-18 07:23:00,
2013-08-18 00:28:00,63.7,37.5,30.12,WNW,292,0.0,0.0,38,0.00,,,0.00,WUHU21623XXSP,2013-08-18 07:28:00,
2013-08-18 00:33:00,63.5,37.3,30.12,WNW,292,0.0,0.0,38,0.00,,,0.00,WUHU21623XXSP,2013-08-18 07:33:00,
2013-08-18 00:38:00,63.1,37.9,30.13,WNW,292,0.0,0.0,39,0.00,,,0.00,WUHU21623XXSP,2013-08-18 07:38:00,
2013-08-18 00:43:00,63.1,37.7,30.12,SSE,157,0.0,0.0,39,0.00,,,0.00,WUHU21623XXSP,2013-08-18 07:43:00,
2013-08-18 00:48:00,62.8,37.4,30.12,SSE,157,0.0,0.0,39,0.00,,,0.00,WUHU21623XXSP,2013-08-18 07:48:00,
2013-08-18 00:53:00,62.4,37.8,30.12,NE,45,0.0,0.0,40,0.00,,,0.00,WUHU21623XXSP,2013-08-18 07:53:00,
2013-08-18 00:58:00,62.4,37.8,30.12,NE,45,0.0,0.0,40,0.00,,,0.00,WUHU21623XXSP,2013-08-18 07:58:00,
2013-08-18 01:03:00,62.2,37.6,30.12,SSE,157,0.0,0.0,40,0.00,,,0.00,WUHU21623XXSP,2013-08-18 08:03:00,
2013-08-18 01:09:00,61.7,37.7,30.12,SSE,157,0.0,0.0,41,0.00,,,0.00,WUHU21623XXSP,2013-08-18 08:09:00,
2013-08-18 01:14:00,61.5,37.5,30.12,ESE,112,0.0,0.0,41,0.00,,,0.00,WUHU21623XXSP,2013-08-18 08:14:00,
2013-08-18 01:20:00,61.3,37.4,30.12,ESE,112,0.0,0.0,41,0.00,,,0.00,WUHU21623XXSP,2013-08-18 08:20:00,
2013-08-18 01:25:00,61.0,37.1,30.12,SE,135,0.0,0.0,41,0.00,,,0.00,WUHU21623XXSP,2013-08-18 08:25:00,
2013-08-18 01:31:00,60.6,36.7,30.12,SSE,157,0.0,0.0,41,0.00,,,0.00,WUHU21623XXSP,2013-08-18 08:31:00,
2013-08-18 01:36:00,60.4,36.6,30.12,SSW,202,0.0,0.0,41,0.00,,,0.00,WUHU21623XXSP,2013-08-18 08:36:00,
2013-08-18 01:41:00,60.4,36.6,30.12,South,180,0.0,0.0,42,0.00,,,0.00,WUHU21623XXSP,2013-08-18 08:41:00,
2013-08-18 01:46:00,60.1,36.8,30.12,North,0,0.0,0.0,42,0.00,,,0.00,WUHU21623XXSP,2013-08-18 08:46:00,
2013-08-18 01:51:00,59.9,36.7,30.12,SSE,157,0.0,0.0,42,0.00,,,0.00,WUHU21623XXSP,2013-08-18 08:51:00,
2013-08-18 01:56:00,59.7,36.5,30.12,SSE,157,0.0,0.0,42,0.00,,,0.00,WUHU21623XXSP,2013-08-18 08:56:00,
2013-08-18 02:01:00,59.5,36.9,30.12,SE,135,0.0,0.0,43,0.00,,,0.00,WUHU21623XXSP,2013-08-18 09:01:00,
2013-08-18 02:06:00,59.4,36.8,30.12,NE,45,0.0,0.0,43,0.00,,,0.00,WUHU21623XXSP,2013-08-18 09:06:00,
2013-08-18 02:11:00,58.8,36.6,30.12,South,180,0.0,0.0,43,0.00,,,0.00,WUHU21623XXSP,2013-08-18 09:11:00,
2013-08-18 02:16:00,58.8,36.3,30.12,SSE,157,0.0,0.0,43,0.00,,,0.00,WUHU21623XXSP,2013-08-18 09:16:00,
2013-08-18 02:21:00,58.8,36.3,30.12,SSE,157,0.0,0.0,43,0.00,,,0.00,WUHU21623XXSP,2013-08-18 09:21:00,
2013-08-18 02:26:00,58.5,35.9,30.12,SSE,157,0.0,0.0,43,0.00,,,0.00,WUHU21623XXSP,2013-08-18 09:26:00,
2013-08-18 02:31:00,58.3,35.8,30.12,SSE,157,0.0,0.0,43,0.00,,,0.00,WUHU21623XXSP,2013-08-18 09:31:00,
2013-08-18 02:36:00,57.9,36.0,30.12,NW,315,0.0,0.0,44,0.00,,,0.00,WUHU21623XXSP,2013-08-18 09:36:00,
2013-08-18 02:41:00,57.9,36.0,30.12,NW,315,0.0,0.0,44,0.00,,,0.00,WUHU21623XXSP,2013-08-18 09:41:00,
2013-08-18 02:46:00,57.7,35.9,30.12,NW,315,0.0,0.0,44,0.00,,,0.00,WUHU21623XXSP,2013-08-18 09:46:00,
2013-08-18 02:52:00,57.4,35.5,30.12,SSE,157,0.0,0.0,44,0.00,,,0.00,WUHU21623XXSP,2013-08-18 09:52:00,
2013-08-18 02:57:00,57.4,35.5,30.12,South,180,0.0,0.0,44,0.00,,,0.00,WUHU21623XXSP,2013-08-18 09:57:00,
2013-08-18 03:02:00,57.4,35.5,30.12,South,180,0.0,0.0,44,0.00,,,0.00,WUHU21623XXSP,2013-08-18 10:02:00,
2013-08-18 03:07:00,57.0,35.8,30.12,South,180,0.0,0.0,45,0.00,,,0.00,WUHU21623XXSP,2013-08-18 10:07:00,
2013-08-18 03:13:00,56.8,35.6,30.12,SW,225,0.0,0.0,45,0.00,,,0.00,WUHU21623XXSP,2013-08-18 10:13:00,
2013-08-18 03:19:00,56.8,35.6,30.12,SW,225,0.0,0.0,45,0.00,,,0.00,WUHU21623XXSP,2013-08-18 10:19:00,
2013-08-18 03:24:00,56.5,35.3,30.12,SW,225,0.0,0.0,45,0.00,,,0.00,WUHU21623XXSP,2013-08-18 10:24:00,
2013-08-18 03:29:00,56.5,35.3,30.12,SSW,202,0.0,0.0,45,0.00,,,0.00,WUHU21623XXSP,2013-08-18 10:29:00,
2013-08-18 03:34:00,56.1,35.1,30.12,SSW,202,0.0,0.0,46,0.00,,,0.00,WUHU21623XXSP,2013-08-18 10:34:00,
2013-08-18 03:39:00,56.1,35.5,30.12,SSW,202,0.0,0.0,46,0.00,,,0.00,WUHU21623XXSP,2013-08-18 10:39:00,
2013-08-18 03:44:00,55.9,35.3,30.12,South,180,0.0,0.0,46,0.00,,,0.00,WUHU21623XXSP,2013-08-18 10:44:00,
2013-08-18 03:49:00,55.8,35.7,30.12,South,180,0.0,0.0,47,0.00,,,0.00,WUHU21623XXSP,2013-08-18 10:49:00,
2013-08-18 03:54:00,55.6,35.5,30.12,South,180,0.0,0.0,47,0.00,,,0.00,WUHU21623XXSP,2013-08-18 10:54:00,
2013-08-18 03:59:00,55.6,35.5,30.12,South,180,0.0,0.0,47,0.00,,,0.00,WUHU21623XXSP,2013-08-18 10:59:00,
2013-08-18 04:04:00,55.4,35.4,30.12,South,180,0.0,0.0,47,0.00,,,0.00,WUHU21623XXSP,2013-08-18 11:04:00,
2013-08-18 04:09:00,55.2,35.2,30.12,South,180,0.0,0.0,47,0.00,,,0.00,WUHU21623XXSP,2013-08-18 11:09:00,
2013-08-18 04:14:00,55.0,35.0,30.12,South,180,0.0,0.0,47,0.00,,,0.00,WUHU21623XXSP,2013-08-18 11:14:00,
2013-08-18 04:19:00,54.9,34.9,30.12,South,180,0.0,0.0,47,0.00,,,0.00,WUHU21623XXSP,2013-08-18 11:19:00,
2013-08-18 04:24:00,54.7,35.3,30.12,South,180,0.0,0.0,48,0.00,,,0.00,WUHU21623XXSP,2013-08-18 11:24:00,
2013-08-18 04:29:00,54.3,35.1,30.13,South,180,0.0,0.0,48,0.00,,,0.00,WUHU21623XXSP,2013-08-18 11:29:00,
2013-08-18 04:34:00,54.3,35.0,30.13,South,180,0.0,0.0,48,0.00,,,0.00,WUHU21623XXSP,2013-08-18 11:34:00,
2013-08-18 04:39:00,54.1,34.8,30.13,South,180,0.0,0.0,48,0.00,,,0.00,WUHU21623XXSP,2013-08-18 11:39:00,
2013-08-18 04:44:00,54.0,34.6,30.13,South,180,0.0,0.0,48,0.00,,,0.00,WUHU21623XXSP,2013-08-18 11:44:00,
2013-08-18 04:49:00,53.8,34.5,30.13,WNW,292,0.0,0.0,48,0.00,,,0.00,WUHU21623XXSP,2013-08-18 11:49:00,
2013-08-18 04:54:00,53.8,35.0,30.13,WNW,292,0.0,0.0,49,0.00,,,0.00,WUHU21623XXSP,2013-08-18 11:54:00,
2013-08-18 04:59:00,53.8,35.0,30.13,WNW,292,0.0,0.0,49,0.00,,,0.00,WUHU21623XXSP,2013-08-18 11:59:00,
2013-08-18 05:04:00,53.6,34.9,30.13,WNW,292,0.0,0.0,49,0.00,,,0.00,WUHU21623XXSP,2013-08-18 12:04:00,
2013-08-18 05:09:00,53.4,34.7,30.13,WNW,292,0.0,0.0,49,0.00,,,0.00,WUHU21623XXSP,2013-08-18 12:09:00,
2013-08-18 05:18:00,53.2,35.1,30.13,WNW,292,0.0,0.0,50,0.00,,,0.00,WUHU21623XXSP,2013-08-18 12:18:00,
2013-08-18 05:23:00,52.9,34.8,30.13,WNW,292,0.0,0.0,50,0.00,,,0.00,WUHU21623XXSP,2013-08-18 12:23:00,
2013-08-18 05:28:00,52.9,34.8,30.13,WNW,292,0.0,0.0,50,0.00,,,0.00,WUHU21623XXSP,2013-08-18 12:28:00,
2013-08-18 05:33:00,52.7,34.6,30.13,WNW,292,0.0,0.0,50,0.00,,,0.00,WUHU21623XXSP,2013-08-18 12:33:00,
2013-08-18 05:38:00,52.5,34.4,30.14,SE,135,0.0,0.0,50,0.00,,,0.00,WUHU21623XXSP,2013-08-18 12:38:00,
2013-08-18 05:43:00,52.5,34.4,30.14,NW,315,0.0,0.0,50,0.00,,,0.00,WUHU21623XXSP,2013-08-18 12:43:00,
2013-08-18 05:48:00,52.3,34.7,30.14,NW,315,0.0,0.0,51,0.00,,,0.00,WUHU21623XXSP,2013-08-18 12:48:00,
2013-08-18 05:54:00,52.3,34.7,30.14,NW,315,0.0,0.0,51,0.00,,,0.00,WUHU21623XXSP,2013-08-18 12:54:00,
2013-08-18 05:59:00,52.2,34.6,30.14,NW,315,0.0,0.0,51,0.00,,,0.00,WUHU21623XXSP,2013-08-18 12:59:00,
2013-08-18 06:04:00,52.2,34.6,30.14,SSW,202,0.0,0.0,51,0.00,,,0.00,WUHU21623XXSP,2013-08-18 13:04:00,
2013-08-18 06:09:00,52.0,34.9,30.15,WSW,247,0.0,0.0,52,0.00,,,0.00,WUHU21623XXSP,2013-08-18 13:09:00,
2013-08-18 06:15:00,51.8,34.7,30.15,NW,315,0.0,0.0,52,0.00,,,0.00,WUHU21623XXSP,2013-08-18 13:15:00,
2013-08-18 06:20:00,51.8,34.7,30.15,NNW,337,0.0,0.0,52,0.00,,,0.00,WUHU21623XXSP,2013-08-18 13:20:00,
2013-08-18 06:26:00,51.6,34.5,30.15,SSW,202,0.0,0.0,52,0.00,,,0.00,WUHU21623XXSP,2013-08-18 13:26:00,
2013-08-18 06:31:00,51.6,34.5,30.15,SSW,202,0.0,0.0,52,0.00,,,0.00,WUHU21623XXSP,2013-08-18 13:31:00,
2013-08-18 06:36:00,51.6,34.5,30.15,South,180,0.0,0.0,52,0.00,,,0.00,WUHU21623XXSP,2013-08-18 13:36:00,
2013-08-18 06:41:00,51.6,35.0,30.15,SSE,157,0.0,0.0,53,0.00,,,0.00,WUHU21623XXSP,2013-08-18 13:41:00,
2013-08-18 06:46:00,51.4,34.8,30.16,SSE,157,0.0,0.0,53,0.00,,,0.00,WUHU21623XXSP,2013-08-18 13:46:00,
2013-08-18 06:51:00,51.4,34.7,30.16,SSE,157,0.0,0.0,53,0.00,,,0.00,WUHU21623XXSP,2013-08-18 13:51:00,
2013-08-18 06:56:00,51.3,34.7,30.16,SSE,157,0.0,0.0,53,0.00,,,0.00,WUHU21623XXSP,2013-08-18 13:56:00,
2013-08-18 07:01:00,51.3,34.7,30.16,South,180,0.0,0.0,53,0.00,,,0.00,WUHU21623XXSP,2013-08-18 14:01:00,
2013-08-18 07:06:00,51.3,34.7,30.16,South,180,0.0,0.0,53,0.00,,,0.00,WUHU21623XXSP,2013-08-18 14:06:00,
2013-08-18 07:13:00,51.4,34.8,30.16,SSW,202,0.0,0.0,53,0.00,,,0.00,WUHU21623XXSP,2013-08-18 14:13:00,
2013-08-18 07:20:00,51.6,35.0,30.16,WSW,247,0.0,0.0,53,0.00,,,0.00,WUHU21623XXSP,2013-08-18 14:20:00,
2013-08-18 07:25:00,51.6,35.4,30.16,SW,225,0.0,0.0,54,0.00,,,0.00,WUHU21623XXSP,2013-08-18 14:25:00,
2013-08-18 07:30:00,52.0,35.8,30.17,South,180,0.0,0.0,54,0.00,,,0.00,WUHU21623XXSP,2013-08-18 14:30:00,
2013-08-18 07:35:00,52.3,36.1,30.17,South,180,0.0,0.0,54,0.00,,,0.00,WUHU21623XXSP,2013-08-18 14:35:00,
2013-08-18 07:43:00,52.7,36.4,30.17,SSW,202,0.0,0.0,54,0.00,,,0.00,WUHU21623XXSP,2013-08-18 14:43:00,
2013-08-18 07:48:00,53.1,36.6,30.17,SSW,202,0.0,0.0,54,0.00,,,0.00,WUHU21623XXSP,2013-08-18 14:48:00,
2013-08-18 07:53:00,53.4,37.1,30.17,SSW,202,0.0,0.0,54,0.00,,,0.00,WUHU21623XXSP,2013-08-18 14:53:00,
2013-08-18 07:58:00,53.8,37.5,30.17,South,180,0.0,0.0,54,0.00,,,0.00,WUHU21623XXSP,2013-08-18 14:58:00,
2013-08-18 08:03:00,54.0,37.6,30.18,South,180,0.0,0.0,54,0.00,,,0.00,WUHU21623XXSP,2013-08-18 15:03:00,
2013-08-18 08:11:00,55.0,39.1,30.18,South,180,0.0,0.0,55,0.00,,,0.00,WUHU21623XXSP,2013-08-18 15:11:00,
2013-08-18 08:22:00,56.3,39.8,30.18,South,180,0.0,0.0,54,0.00,,,0.00,WUHU21623XXSP,2013-08-18 15:22:00,
2013-08-18 08:27:00,56.8,40.0,30.18,South,180,0.0,0.0,54,0.00,,,0.00,WUHU21623XXSP,2013-08-18 15:27:00,
2013-08-18 08:32:00,57.4,41.2,30.18,South,180,0.0,0.0,55,0.00,,,0.00,WUHU21623XXSP,2013-08-18 15:32:00,
2013-08-18 08:37:00,57.7,41.2,30.18,South,180,0.0,0.0,54,0.00,,,0.00,WUHU21623XXSP,2013-08-18 15:37:00,
2013-08-18 08:42:00,58.1,41.5,30.18,SSE,157,0.0,0.0,54,0.00,,,0.00,WUHU21623XXSP,2013-08-18 15:42:00,
2013-08-18 08:48:00,59.2,42.0,30.18,South,180,0.0,0.0,53,0.00,,,0.00,WUHU21623XXSP,2013-08-18 15:48:00,
2013-08-18 08:53:00,59.5,42.2,30.18,South,180,0.0,0.0,53,0.00,,,0.00,WUHU21623XXSP,2013-08-18 15:53:00,
2013-08-18 08:58:00,60.4,42.7,30.18,SE,135,0.0,0.0,52,0.00,,,0.00,WUHU21623XXSP,2013-08-18 15:58:00,
2013-08-18 09:03:00,61.0,42.9,30.18,SE,135,0.0,0.0,52,0.00,,,0.00,WUHU21623XXSP,2013-08-18 16:03:00,
2013-08-18 09:08:00,61.2,43.4,30.18,South,180,0.0,0.0,52,0.00,,,0.00,WUHU21623XXSP,2013-08-18 16:08:00,
2013-08-18 09:13:00,61.9,43.5,30.18,WNW,292,0.0,0.0,51,0.00,,,0.00,WUHU21623XXSP,2013-08-18 16:13:00,
2013-08-18 09:18:00,62.4,44.0,30.18,NNW,337,0.0,0.0,51,0.00,,,0.00,WUHU21623XXSP,2013-08-18 16:18:00,
2013-08-18 09:24:00,63.0,44.5,30.18,SSW,202,0.0,0.7,51,0.00,,,0.00,WUHU21623XXSP,2013-08-18 16:24:00,
2013-08-18 09:29:00,63.5,45.0,30.18,South,180,0.0,0.7,51,0.00,,,0.00,WUHU21623XXSP,2013-08-18 16:29:00,
2013-08-18 09:34:00,64.0,45.5,30.18,SSE,157,0.0,0.0,51,0.00,,,0.00,WUHU21623XXSP,2013-08-18 16:34:00,
2013-08-18 09:39:00,64.6,45.5,30.18,NW,315,0.0,0.0,50,0.00,,,0.00,WUHU21623XXSP,2013-08-18 16:39:00,
2013-08-18 09:44:00,64.9,45.3,30.18,WNW,292,0.0,0.0,49,0.00,,,0.00,WUHU21623XXSP,2013-08-18 16:44:00,
2013-08-18 09:52:00,65.8,46.2,30.18,South,180,0.0,0.0,49,0.00,,,0.00,WUHU21623XXSP,2013-08-18 16:52:00,
2013-08-18 09:57:00,66.4,46.3,30.18,SSE,157,0.0,0.0,48,0.00,,,0.00,WUHU21623XXSP,2013-08-18 16:57:00,
2013-08-18 10:02:00,66.7,46.4,30.18,SSW,202,0.0,0.0,48,0.00,,,0.00,WUHU21623XXSP,2013-08-18 17:02:00,
2013-08-18 10:07:00,67.6,46.9,30.18,West,270,0.0,0.0,47,0.00,,,0.00,WUHU21623XXSP,2013-08-18 17:07:00,
2013-08-18 10:12:00,67.8,46.8,30.18,West,270,1.1,1.1,46,0.00,,,0.00,WUHU21623XXSP,2013-08-18 17:12:00,
2013-08-18 10:17:00,68.2,46.5,30.18,NW,315,0.0,1.1,46,0.00,,,0.00,WUHU21623XXSP,2013-08-18 17:17:00,
2013-08-18 10:22:00,69.1,46.4,30.17,West,270,0.0,0.0,45,0.00,,,0.00,WUHU21623XXSP,2013-08-18 17:22:00,
2013-08-18 10:27:00,69.4,46.5,30.17,SW,225,0.0,0.0,44,0.00,,,0.00,WUHU21623XXSP,2013-08-18 17:27:00,
2013-08-18 10:35:00,70.3,46.7,30.17,WNW,292,1.8,1.8,43,0.00,,,0.00,WUHU21623XXSP,2013-08-18 17:35:00,
2013-08-18 10:47:00,71.8,46.8,30.17,North,0,0.0,0.0,41,0.00,,,0.00,WUHU21623XXSP,2013-08-18 17:47:00,
2013-08-18 10:52:00,72.1,46.5,30.17,North,0,0.0,0.0,40,0.00,,,0.00,WUHU21623XXSP,2013-08-18 17:52:00,
2013-08-18 10:57:00,72.5,46.1,30.17,NW,315,2.5,2.5,39,0.00,,,0.00,WUHU21623XXSP,2013-08-18 17:57:00,
2013-08-18 11:05:00,73.8,45.7,30.17,WNW,292,0.0,2.7,37,0.00,,,0.00,WUHU21623XXSP,2013-08-18 18:05:00,
2013-08-18 11:10:00,74.5,46.0,30.17,WNW,292,0.0,0.0,36,0.00,,,0.00,WUHU21623XXSP,2013-08-18 18:10:00,
2013-08-18 11:15:00,74.8,45.9,30.17,NE,45,0.0,0.0,36,0.00,,,0.00,WUHU21623XXSP,2013-08-18 18:15:00,
2013-08-18 11:24:00,76.1,45.6,30.16,WNW,292,0.0,0.0,34,0.00,,,0.00,WUHU21623XXSP,2013-08-18 18:24:00,
2013-08-18 11:29:00,76.8,47.0,30.16,NW,315,0.0,0.0,35,0.00,,,0.00,WUHU21623XXSP,2013-08-18 18:29:00,
2013-08-18 11:34:00,77.2,45.8,30.16,SSW,202,0.0,0.0,33,0.00,,,0.00,WUHU21623XXSP,2013-08-18 18:34:00,
2013-08-18 11:39:00,77.7,46.2,30.17,SSW,202,0.0,0.0,33,0.00,,,0.00,WUHU21623XXSP,2013-08-18 18:39:00,
2013-08-18 11:44:00,78.6,46.9,30.16,North,0,0.0,0.0,33,0.00,,,0.00,WUHU21623XXSP,2013-08-18 18:44:00,
2013-08-18 11:49:00,79.0,46.5,30.16,WSW,247,0.0,0.0,32,0.00,,,0.00,WUHU21623XXSP,2013-08-18 18:49:00,
2013-08-18 11:54:00,79.9,46.2,30.16,SSE,157,2.7,2.7,31,0.00,,,0.00,WUHU21623XXSP,2013-08-18 18:54:00,
2013-08-18 12:00:00,80.4,47.0,30.16,SSE,157,0.0,2.7,31,0.00,,,0.00,WUHU21623XXSP,2013-08-18 19:00:00,
2013-08-18 12:09:00,81.1,47.6,30.16,SSE,157,0.0,0.0,31,0.00,,,0.00,WUHU21623XXSP,2013-08-18 19:09:00,
2013-08-18 12:14:00,81.5,47.9,30.15,SSE,157,0.0,0.0,31,0.00,,,0.00,WUHU21623XXSP,2013-08-18 19:14:00,
2013-08-18 12:19:00,82.0,48.3,30.15,WNW,292,0.0,0.0,31,0.00,,,0.00,WUHU21623XXSP,2013-08-18 19:19:00,
2013-08-18 12:24:00,82.6,48.0,30.15,South,180,0.0,0.0,30,0.00,,,0.00,WUHU21623XXSP,2013-08-18 19:24:00,
2013-08-18 12:30:00,83.1,47.4,30.15,NW,315,1.1,1.1,29,0.00,,,0.00,WUHU21623XXSP,2013-08-18 19:30:00,
2013-08-18 12:35:00,83.5,46.4,30.15,NW,315,5.8,5.8,27,0.00,,,0.00,WUHU21623XXSP,2013-08-18 19:35:00,
2013-08-18 12:40:00,83.7,45.8,30.15,ESE,112,0.0,5.8,27,0.00,,,0.00,WUHU21623XXSP,2013-08-18 19:40:00,
2013-08-18 12:45:00,84.4,45.4,30.15,South,180,0.0,0.0,26,0.00,,,0.00,WUHU21623XXSP,2013-08-18 19:45:00,
2013-08-18 12:50:00,84.7,45.7,30.15,SSE,157,0.0,0.0,26,0.00,,,0.00,WUHU21623XXSP,2013-08-18 19:50:00,
2013-08-18 13:00:00,85.6,46.4,30.14,SW,225,0.0,0.0,26,0.00,,,0.00,WUHU21623XXSP,2013-08-18 20:00:00,
2013-08-18 13:06:00,86.4,46.9,30.14,NNW,337,0.0,0.0,26,0.00,,,0.00,WUHU21623XXSP,2013-08-18 20:06:00,
2013-08-18 13:12:00,86.5,46.1,30.14,North,0,1.6,1.6,25,0.00,,,0.00,WUHU21623XXSP,2013-08-18 20:12:00,
2013-08-18 13:19:00,87.6,45.8,30.14,West,270,0.0,1.6,24,0.00,,,0.00,WUHU21623XXSP,2013-08-18 20:19:00,
2013-08-18 13:24:00,87.8,46.1,30.14,NW,315,1.8,1.8,24,0.00,,,0.00,WUHU21623XXSP,2013-08-18 20:24:00,
2013-08-18 13:29:00,88.0,44.2,30.13,NNW,337,1.3,1.8,22,0.00,,,0.00,WUHU21623XXSP,2013-08-18 20:29:00,
2013-08-18 13:34:00,88.5,44.6,30.13,WNW,292,1.8,1.8,22,0.00,,,0.00,WUHU21623XXSP,2013-08-18 20:34:00,
2013-08-18 13:41:00,89.8,45.3,30.13,NE,45,0.0,1.8,21,0.00,,,0.00,WUHU21623XXSP,2013-08-18 20:41:00,
2013-08-18 13:46:00,90.0,44.6,30.13,NE,45,0.0,0.0,21,0.00,,,0.00,WUHU21623XXSP,2013-08-18 20:46:00,
2013-08-18 13:51:00,90.3,45.0,30.13,North,0,0.0,0.0,21,0.00,,,0.00,WUHU21623XXSP,2013-08-18 20:51:00,
2013-08-18 13:56:00,91.2,45.7,30.13,SSE,157,0.0,0.0,21,0.00,,,0.00,WUHU21623XXSP,2013-08-18 20:56:00,
2013-08-18 14:01:00,91.9,47.3,30.13,NNW,337,0.0,0.0,22,0.00,,,0.00,WUHU21623XXSP,2013-08-18 21:01:00,
2013-08-18 14:06:00,92.1,46.5,30.12,NNW,337,0.0,0.0,21,0.00,,,0.00,WUHU21623XXSP,2013-08-18 21:06:00,
2013-08-18 14:11:00,92.3,45.5,30.12,NW,315,2.9,2.9,20,0.00,,,0.00,WUHU21623XXSP,2013-08-18 21:11:00,
2013-08-18 14:16:00,92.3,43.7,30.12,East,90,0.0,2.9,19,0.00,,,0.00,WUHU21623XXSP,2013-08-18 21:16:00,
2013-08-18 14:21:00,92.1,45.4,30.12,SSE,157,1.3,1.3,20,0.00,,,0.00,WUHU21623XXSP,2013-08-18 21:21:00,
2013-08-18 14:30:00,92.1,46.5,30.11,WNW,292,0.9,0.9,21,0.00,,,0.00,WUHU21623XXSP,2013-08-18 21:30:00,
2013-08-18 14:35:00,92.1,46.5,30.11,West,270,0.0,0.9,21,0.00,,,0.00,WUHU21623XXSP,2013-08-18 21:35:00,
2013-08-18 14:40:00,92.1,46.5,30.11,ESE,112,0.0,0.0,21,0.00,,,0.00,WUHU21623XXSP,2013-08-18 21:40:00,
2013-08-18 14:45:00,92.1,46.5,30.11,SSE,157,0.0,0.0,21,0.00,,,0.00,WUHU21623XXSP,2013-08-18 21:45:00,
2013-08-18 14:50:00,92.1,46.5,30.10,SSE,157,0.0,0.0,21,0.00,,,0.00,WUHU21623XXSP,2013-08-18 21:50:00,
2013-08-18 14:56:00,92.1,46.5,30.10,WSW,247,1.1,1.1,21,0.00,,,0.00,WUHU21623XXSP,2013-08-18 21:56:00,
2013-08-18 15:01:00,92.3,46.6,30.10,SE,135,0.0,1.1,21,0.00,,,0.00,WUHU21623XXSP,2013-08-18 22:01:00,
2013-08-18 15:08:00,92.5,46.7,30.10,SE,135,0.0,0.0,21,0.00,,,0.00,WUHU21623XXSP,2013-08-18 22:08:00,
2013-08-18 15:13:00,92.5,46.7,30.10,South,180,0.0,0.0,21,0.00,,,0.00,WUHU21623XXSP,2013-08-18 22:13:00,
2013-08-18 15:19:00,92.8,47.0,30.09,SE,135,0.0,0.0,21,0.00,,,0.00,WUHU21623XXSP,2013-08-18 22:19:00,
2013-08-18 15:24:00,93.0,47.2,30.09,SSW,202,2.0,2.0,21,0.00,,,0.00,WUHU21623XXSP,2013-08-18 22:24:00,
2013-08-18 15:30:00,93.4,47.5,30.09,SSW,202,1.1,2.0,21,0.00,,,0.00,WUHU21623XXSP,2013-08-18 22:30:00,
2013-08-18 15:35:00,93.6,47.6,30.09,NW,315,0.0,1.1,21,0.00,,,0.00,WUHU21623XXSP,2013-08-18 22:35:00,
2013-08-18 15:40:00,93.6,47.6,30.09,WNW,292,0.0,0.0,21,0.00,,,0.00,WUHU21623XXSP,2013-08-18 22:40:00,
2013-08-18 15:45:00,93.7,46.7,30.09,NNW,337,0.0,2.5,20,0.00,,,0.00,WUHU21623XXSP,2013-08-18 22:45:00,
2013-08-18 15:51:00,93.7,46.7,30.09,NW,315,0.7,2.5,20,0.00,,,0.00,WUHU21623XXSP,2013-08-18 22:51:00,
2013-08-18 15:56:00,93.9,45.0,30.09,WSW,247,0.0,0.7,19,0.00,,,0.00,WUHU21623XXSP,2013-08-18 22:56:00,
2013-08-18 16:01:00,94.1,45.0,30.09,North,0,0.0,6.3,19,0.00,,,0.00,WUHU21623XXSP,2013-08-18 23:01:00,
2013-08-18 16:06:00,94.1,45.2,30.08,WNW,292,0.0,6.3,19,0.00,,,0.00,WUHU21623XXSP,2013-08-18 23:06:00,
2013-08-18 16:11:00,93.9,45.0,30.08,South,180,0.0,0.0,19,0.00,,,0.00,WUHU21623XXSP,2013-08-18 23:11:00,
2013-08-18 16:19:00,93.6,44.7,30.08,SSE,157,3.8,3.8,19,0.00,,,0.00,WUHU21623XXSP,2013-08-18 23:19:00,
2013-08-18 16:24:00,93.6,44.7,30.08,WSW,247,0.0,3.8,19,0.00,,,0.00,WUHU21623XXSP,2013-08-18 23:24:00,
2013-08-18 16:29:00,93.4,44.6,30.08,South,180,3.4,3.4,19,0.00,,,0.00,WUHU21623XXSP,2013-08-18 23:29:00,
2013-08-18 16:34:00,93.2,44.5,30.07,SSE,157,0.7,3.4,19,0.00,,,0.00,WUHU21623XXSP,2013-08-18 23:34:00,
2013-08-18 16:39:00,93.0,44.3,30.07,NE,45,0.0,0.7,19,0.00,,,0.00,WUHU21623XXSP,2013-08-18 23:39:00,
2013-08-18 16:45:00,93.0,46.1,30.07,North,0,0.0,0.0,20,0.00,,,0.00,WUHU21623XXSP,2013-08-18 23:45:00,
2013-08-18 16:51:00,93.4,44.6,30.07,SSW,202,1.1,1.1,19,0.00,,,0.00,WUHU21623XXSP,2013-08-18 23:51:00,
2013-08-18 16:56:00,93.4,46.4,30.08,SSE,157,0.0,1.1,20,0.00,,,0.00,WUHU21623XXSP,2013-08-18 23:56:00,
2013-08-18 17:06:00,92.5,43.9,30.07,SSW,202,0.7,0.7,19,0.00,,,0.00,WUHU21623XXSP,2013-08-19 00:06:00,
2013-08-18 17:12:00,92.1,45.4,30.07,NNW,337,0.0,0.7,20,0.00,,,0.00,WUHU21623XXSP,2013-08-19 00:12:00,
2013-08-18 17:21:00,91.4,44.8,30.09,NW,315,2.5,2.5,20,0.00,,,0.00,WUHU21623XXSP,2013-08-19 00:21:00,
2013-08-18 17:26:00,91.2,44.6,30.09,NW,315,0.0,2.5,20,0.00,,,0.00,WUHU21623XXSP,2013-08-19 00:26:00,
2013-08-18 17:31:00,91.0,44.5,30.09,SSW,202,0.0,0.0,20,0.00,,,0.00,WUHU21623XXSP,2013-08-19 00:31:00,
2013-08-18 17:36:00,90.5,44.1,30.10,SSW,202,5.4,5.4,21,0.00,,,0.00,WUHU21623XXSP,2013-08-19 00:36:00,
2013-08-18 17:42:00,90.0,44.7,30.10,South,180,0.0,5.4,21,0.00,,,0.00,WUHU21623XXSP,2013-08-19 00:42:00,
2013-08-18 17:47:00,89.4,44.3,30.09,South,180,6.7,6.7,21,0.00,,,0.00,WUHU21623XXSP,2013-08-19 00:47:00,
2013-08-18 17:52:00,88.9,43.8,30.09,South,180,0.0,6.7,21,0.00,,,0.00,WUHU21623XXSP,2013-08-19 00:52:00,
2013-08-18 17:57:00,88.0,44.3,30.09,SSW,202,0.0,0.0,22,0.00,,,0.00,WUHU21623XXSP,2013-08-19 00:57:00,
2013-08-18 18:02:00,88.0,44.2,30.09,SE,135,0.0,0.0,22,0.00,,,0.00,WUHU21623XXSP,2013-08-19 01:02:00,
2013-08-18 18:10:00,87.1,44.5,30.10,SE,135,0.0,0.0,23,0.00,,,0.00,WUHU21623XXSP,2013-08-19 01:10:00,
2013-08-18 18:15:00,86.9,44.3,30.10,South,180,1.6,1.6,23,0.00,,,0.00,WUHU21623XXSP,2013-08-19 01:15:00,
2013-08-18 18:20:00,86.5,44.0,30.10,ENE,67,0.0,1.6,23,0.00,,,0.00,WUHU21623XXSP,2013-08-19 01:20:00,
2013-08-18 18:25:00,86.5,44.0,30.10,ENE,67,0.0,0.0,23,0.00,,,0.00,WUHU21623XXSP,2013-08-19 01:25:00,
2013-08-18 18:30:00,86.4,43.8,30.10,NE,45,0.0,0.0,24,0.00,,,0.00,WUHU21623XXSP,2013-08-19 01:30:00,
2013-08-18 18:38:00,85.6,45.4,30.10,ESE,112,0.0,0.0,25,0.00,,,0.00,WUHU21623XXSP,2013-08-19 01:38:00,
2013-08-18 18:43:00,85.3,45.1,30.10,ESE,112,0.0,0.0,25,0.00,,,0.00,WUHU21623XXSP,2013-08-19 01:43:00,
2013-08-18 18:48:00,84.9,44.9,30.10,SSE,157,0.0,0.0,25,0.00,,,0.00,WUHU21623XXSP,2013-08-19 01:48:00,
2013-08-18 18:53:00,84.7,44.6,30.10,SSE,157,0.0,0.0,25,0.00,,,0.00,WUHU21623XXSP,2013-08-19 01:53:00,
2013-08-18 18:59:00,84.4,45.4,30.10,ESE,112,0.0,0.0,26,0.00,,,0.00,WUHU21623XXSP,2013-08-19 01:59:00,
2013-08-18 19:06:00,83.8,44.9,30.10,East,90,0.0,0.0,26,0.00,,,0.00,WUHU21623XXSP,2013-08-19 02:06:00,
2013-08-18 19:11:00,83.5,44.6,30.10,North,0,0.0,0.0,26,0.00,,,0.00,WUHU21623XXSP,2013-08-19 02:11:00,
2013-08-18 19:21:00,83.1,44.3,30.10,NNE,22,0.0,0.0,26,0.00,,,0.00,WUHU21623XXSP,2013-08-19 02:21:00,
2013-08-18 19:26:00,82.8,44.0,30.10,NNE,22,0.0,0.0,26,0.00,,,0.00,WUHU21623XXSP,2013-08-19 02:26:00,
2013-08-18 19:34:00,82.0,44.4,30.10,ENE,67,0.0,0.0,27,0.00,,,0.00,WUHU21623XXSP,2013-08-19 02:34:00,
2013-08-18 19:42:00,81.3,43.8,30.10,ENE,67,0.0,0.0,27,0.00,,,0.00,WUHU21623XXSP,2013-08-19 02:42:00,
2013-08-18 19:55:00,80.8,43.4,30.12,East,90,0.0,0.0,27,0.00,,,0.00,WUHU21623XXSP,2013-08-19 02:55:00,
2013-08-18 20:00:00,80.4,43.1,30.11,East,90,0.0,0.0,28,0.00,,,0.00,WUHU21623XXSP,2013-08-19 03:00:00,
2013-08-18 20:05:00,80.1,43.8,30.12,ESE,112,0.0,0.0,28,0.00,,,0.00,WUHU21623XXSP,2013-08-19 03:05:00,
2013-08-18 20:10:00,79.7,43.5,30.12,ESE,112,0.0,0.0,28,0.00,,,0.00,WUHU21623XXSP,2013-08-19 03:10:00,
2013-08-18 20:15:00,79.5,43.3,30.12,SE,135,0.0,0.0,28,0.00,,,0.00,WUHU21623XXSP,2013-08-19 03:15:00,
2013-08-18 20:23:00,79.3,43.2,30.13,ESE,112,0.0,0.0,28,0.00,,,0.00,WUHU21623XXSP,2013-08-19 03:23:00,
2013-08-18 20:28:00,79.2,43.2,30.13,SE,135,0.0,0.0,28,0.00,,,0.00,WUHU21623XXSP,2013-08-19 03:28:00,
2013-08-18 20:33:00,79.2,43.0,30.13,SE,135,0.0,0.0,28,0.00,,,0.00,WUHU21623XXSP,2013-08-19 03:33:00,
2013-08-18 20:38:00,79.0,42.9,30.13,SSE,157,0.0,0.0,28,0.00,,,0.00,WUHU21623XXSP,2013-08-19 03:38:00,
2013-08-18 20:43:00,79.0,42.9,30.14,South,180,0.0,0.0,28,0.00,,,0.00,WUHU21623XXSP,2013-08-19 03:43:00,
2013-08-18 20:48:00,79.0,42.9,30.14,SSE,157,0.0,0.0,28,0.00,,,0.00,WUHU21623XXSP,2013-08-19 03:48:00,
2013-08-18 20:53:00,79.0,42.9,30.14,SE,135,0.0,0.0,28,0.00,,,0.00,WUHU21623XXSP,2013-08-19 03:53:00,
2013-08-18 20:58:00,79.0,42.9,30.14,ENE,67,0.0,0.0,28,0.00,,,0.00,WUHU21623XXSP,2013-08-19 03:58:00,
2013-08-18 21:01:00,78.8,42.7,30.14,SE,135,0.0,0.0,28,0.00,,,0.00,WUHU21623XXSP,2013-08-19 04:01:00,
2013-08-18 21:02:00,78.8,42.7,30.14,SE,135,0.0,0.0,28,0.00,,,0.00,WUHU21623XXSP,2013-08-19 04:02:00,
2013-08-18 21:03:00,78.8,42.7,30.14,SE,135,0.0,0.0,28,0.00,,,0.00,WUHU21623XXSP,2013-08-19 04:03:00,
2013-08-18 21:08:00,78.6,42.5,30.14,SSE,157,0.0,0.0,28,0.00,,,0.00,WUHU21623XXSP,2013-08-19 04:08:00,
2013-08-18 21:13:00,78.6,42.5,30.14,WNW,292,0.0,0.0,28,0.00,,,0.00,WUHU21623XXSP,2013-08-19 04:13:00,
2013-08-18 21:18:00,78.4,42.4,30.15,South,180,0.9,0.9,28,0.00,,,0.00,WUHU21623XXSP,2013-08-19 04:18:00,
2013-08-18 21:23:00,78.4,42.4,30.15,SSE,157,1.6,1.6,28,0.00,,,0.00,WUHU21623XXSP,2013-08-19 04:23:00,
2013-08-18 21:28:00,78.3,42.3,30.15,SW,225,0.0,1.6,28,0.00,,,0.00,WUHU21623XXSP,2013-08-19 04:28:00,
2013-08-18 21:35:00,77.9,43.0,30.15,South,180,0.0,0.0,29,0.00,,,0.00,WUHU21623XXSP,2013-08-19 04:35:00,
2013-08-18 21:40:00,77.7,43.0,30.15,South,180,0.0,0.0,29,0.00,,,0.00,WUHU21623XXSP,2013-08-19 04:40:00,
2013-08-18 21:46:00,77.5,42.7,30.15,SE,135,0.0,0.0,29,0.00,,,0.00,WUHU21623XXSP,2013-08-19 04:46:00,
2013-08-18 21:53:00,77.2,42.4,30.15,ENE,67,0.0,0.0,29,0.00,,,0.00,WUHU21623XXSP,2013-08-19 04:53:00,
2013-08-18 21:58:00,76.8,42.1,30.15,ENE,67,0.0,0.0,29,0.00,,,0.00,WUHU21623XXSP,2013-08-19 04:58:00,
2013-08-18 22:03:00,76.8,42.1,30.14,South,180,0.0,0.0,29,0.00,,,0.00,WUHU21623XXSP,2013-08-19 05:03:00,
2013-08-18 22:08:00,76.6,43.0,30.15,NNE,22,0.0,0.0,30,0.00,,,0.00,WUHU21623XXSP,2013-08-19 05:08:00,
2013-08-18 22:14:00,76.5,42.9,30.15,South,180,0.0,0.0,30,0.00,,,0.00,WUHU21623XXSP,2013-08-19 05:14:00,
2013-08-18 22:19:00,76.3,42.7,30.15,NNE,22,0.0,0.0,30,0.00,,,0.00,WUHU21623XXSP,2013-08-19 05:19:00,
2013-08-18 22:35:00,75.9,43.1,30.14,WNW,292,0.0,0.0,31,0.00,,,0.00,WUHU21623XXSP,2013-08-19 05:35:00,
2013-08-18 22:40:00,75.7,43.7,30.15,WNW,292,0.0,0.0,32,0.00,,,0.00,WUHU21623XXSP,2013-08-19 05:40:00,
2013-08-18 22:45:00,75.6,43.7,30.16,NW,315,0.0,0.0,33,0.00,,,0.00,WUHU21623XXSP,2013-08-19 05:45:00,
2013-08-18 22:50:00,75.4,44.1,30.15,ENE,67,0.0,0.0,33,0.00,,,0.00,WUHU21623XXSP,2013-08-19 05:50:00,
2013-08-18 22:55:00,75.0,43.8,30.15,NE,45,0.0,0.0,33,0.00,,,0.00,WUHU21623XXSP,2013-08-19 05:55:00,
2013-08-18 23:00:00,74.8,43.7,30.16,NNE,22,0.0,0.0,33,0.00,,,0.00,WUHU21623XXSP,2013-08-19 06:00:00,
2013-08-18 23:05:00,74.7,43.5,30.16,East,90,0.0,0.0,33,0.00,,,0.00,WUHU21623XXSP,2013-08-19 06:05:00,
2013-08-18 23:10:00,74.5,43.3,30.16,SSE,157,0.0,0.0,33,0.00,,,0.00,WUHU21623XXSP,2013-08-19 06:10:00,
2013-08-18 23:16:00,74.3,43.2,30.16,SE,135,0.0,0.0,33,0.00,,,0.00,WUHU21623XXSP,2013-08-19 06:16:00,
2013-08-18 23:21:00,74.3,43.2,30.16,SSE,157,0.0,0.0,33,0.00,,,0.00,WUHU21623XXSP,2013-08-19 06:21:00,
2013-08-18 23:27:00,74.3,43.2,30.16,SSE,157,0.0,0.0,33,0.00,,,0.00,WUHU21623XXSP,2013-08-19 06:27:00,
2013-08-18 23:33:00,74.3,43.2,30.17,SE,135,0.0,0.0,33,0.00,,,0.00,WUHU21623XXSP,2013-08-19 06:33:00,
2013-08-18 23:38:00,74.3,43.2,30.17,South,180,2.2,2.2,33,0.00,,,0.00,WUHU21623XXSP,2013-08-19 06:38:00,
2013-08-18 23:43:00,74.3,43.2,30.17,SSE,157,0.0,2.2,33,0.00,,,0.00,WUHU21623XXSP,2013-08-19 06:43:00,
2013-08-18 23:50:00,74.1,43.0,30.18,SSE,157,0.0,0.0,33,0.00,,,0.00,WUHU21623XXSP,2013-08-19 06:50:00,
2013-08-18 23:55:00,74.1,43.0,30.18,SE,135,0.0,0.0,33,0.00,,,0.00,WUHU21623XXSP,2013-08-19 06:55:00,